{"data":{"norad_id":46585,"epoch":"2026-05-25T06:00:02.000160Z","epoch_age_seconds":57367,"freshness":"FRESH","line1":"1 46585U 20070BF  26145.25002315  .00363591  60119-4  11910-2 0  9995","line2":"2 46585  53.0307  93.4123 0007400  77.5785  27.1909 15.90043913  6009","mean_motion":15.90043913,"eccentricity":0.00074,"inclination_deg":53.0307,"raan_deg":93.4123,"arg_perigee_deg":77.5785,"mean_anomaly_deg":27.1909,"bstar":0.001191,"rev_number":600,"period_min":90.563536530453,"perigee_km":297.21644198906,"apogee_km":307.10328134433,"semimajor_km":6680.2968616667,"source":"CELESTRAK","updated_at":"2026-05-25T13:38:16.514192Z"}}